User: anonymous   Login
Location: ScottNC Observatory
(36.0892°N, 80.4832°W)
Time: 15:27:04
(UTC-05:00)
Language:

NOAA 15 - Orbit

View from above orbital plane
View from above orbital plane
View from above satellite
View from above satellite

Ground track
Ground track

The orbit data is extracted from the following two-line orbital elements,

1 25338U 98030A   19325.89426844 +.00000027 +00000-0 +29937-4 0  9999
2 25338 098.7367 346.8042 0011046 144.8078 215.3833 14.25940089119259
Epoch (UTC): 21 November 2019 21:27:44
Eccentricity: 0.0011046
inclination: 98.7367°
perigee height: 797 km
apogee height: 813 km
right ascension of ascending node: 346.8042°
argument of perigee: 144.8078°
revolutions per day: 14.25940089
mean anomaly at epoch: 215.3833°
orbit number at epoch: 11925

The dashed part of the orbit path shows where the satellite is in the earth's shadow,  

DLR